Location: Bathurst
(33.4193°S, 149.5775°E)
Time: 21:57:02
(UTC+10:00)

Vanguard 3 - Pass Details

Date: 28 June 2021
Orbit: 508 x 3261 km, 33.4° (Epoch: 25 July)

Event Time Altitude Azimuth Distance (km) Brightness Sun altitude
Rises 19:50:47 0° 260° (W) 6,662 12.8 -34.0°
Reaches altitude 10° 19:54:51 10° 260° (W) 5,865 12.2 -34.8°
Maximum altitude 20:14:35 81° 343° (NNW) 3,257 9.9 -38.9°
Enters shadow 20:19:42 60° 57° (ENE) 3,424 9.8 -40.0°
